Wind_Speed
14 14 14 14 14 15 15 16 16 16 16 16 17 16 16 17 17 17 16 16 16 16 16 16 17 17 17 17 17 18 18 18 18 18 18 18 18 18 18 18 18 18 19
17 18 18 18 18 18 18 18 19 19 19 19 19 19 18 19 19 19 18 18 18 18 18 18 19 19 18 18 19 20 20 21 21 20 20 20 20 19 19 19 20 20 21
20 20 21 21 21 21 21 22 22 22 22 22 22 22 22 21 21 20 19 19 20 20 19 19 19 19 19 19 20 21 22 23 23 23 22 22 22 21 22 22 22 22 23
22 23 24 24 24 24 24 24 24 24 24 24 24 24 24 23 22 22 21 21 21 21 21 21 21 21 22 22 23 24 24 25 25 25 25 25 24 25 24 24 24 24 24
25 26 26 26 27 26 26 26 26 26 26 26 26 25 25 24 24 23 23 23 22 22 23 23 24 24 25 26 26 27 27 27 27 28 28 27 26 27 27 26 26 26 25
28 28 27 27 28 27 27 27 27 27 28 28 27 26 26 25 25 24 25 25 25 25 25 25 26 26 27 28 28 29 28 29 29 29 29 28 28 28 29 28 28 28 27
30 30 30 29 30 29 29 29 28 28 28 28 28 27 27 27 27 26 27 27 27 27 27 27 28 28 29 29 30 30 29 29 29 29 30 29 30 30 30 30 30 30 30
33 33 32 31 31 30 30 30 30 30 30 29 29 29 29 29 29 28 28 28 28 29 29 29 29 29 29 30 30 30 30 30 31 31 31 30 30 31 32 32 32 32 33
35 34 33 32 32 32 32 32 32 33 32 32 32 31 31 31 31 30 30 30 30 30 30 30 29 30 30 31 31 31 31 31 32 32 31 31 31 32 33 34 34 34 34
34 35 36 35 34 33 34 34 34 34 34 33 33 33 32 32 32 32 33 33 32 32 32 32 32 32 32 32 32 32 32 32 32 32 32 32 33 34 35 35 35 35 35
36 36 35 35 33 33 34 34 33 34 34 34 35 35 34 34 34 34 34 34 33 34 34 32 32 33 33 33 33 33 33 33 33 33 33 34 34 35 35 35 36 36 35
37 36 36 36 34 34 34 35 35 35 35 36 36 37 37 36 36 36 35 34 34 34 34 34 33 33 33 34 34 33 33 34 34 34 34 35 35 36 36 36 36 36 35
37 37 37 37 36 36 36 37 36 36 36 37 37 36 36 36 36 35 35 35 34 34 34 34 34 34 34 35 35 35 34 35 35 35 35 36 36 36 35 35 35 35 35
37 37 36 36 36 36 37 37 38 37 36 36 35 35 35 35 35 34 34 35 35 35 35 34 34 34 34 34 35 35 35 35 35 35 35 35 35 35 35 35 35 35 35
37 38 37 36 35 35 36 36 36 36 36 36 35 34 33 33 33 34 35 34 34 34 34 34 34 35 35 35 35 35 35 35 34 34 33 33 33 33 34 34 35 35 35
37 37 37 36 35 35 35 35 35 35 35 35 34 33 33 33 33 34 34 34 34 34 34 34 34 35 35 35 34 34 34 34 33 33 33 33 33 33 34 34 35 34 34
37 37 36 35 35 35 34 34 34 34 34 33 33 33 32 32 32 32 32 32 33 33 33 33 33 34 34 34 34 34 33 34 33 33 33 33 33 33 33 33 33 33 33
35 35 34 33 34 34 34 34 34 33 33 33 33 33 33 33 33 32 32 32 32 33 33 33 33 33 33 33 33 33 32 33 33 33 33 33 33 32 32 32 32 32 32
33 33 33 32 33 33 33 34 33 33 33 33 33 32 32 32 32 32 32 33 33 33 33 33 33 33 33 33 33 33 33 33 33 33 33 33 32 32 32 32 32 32 32
33 33 32 32 32 32 33 33 33 33 33 33 33 33 32 32 32 33 33 34 34 34 33 33 32 33 33 33 33 33 33 33 33 33 32 32 32 32 33 33 32 32 32
33 33 33 32 32 32 31 32 32 31 32 32 32 31 31 32 33 33 33 33 34 34 33 32 33 33 34 34 34 34 34 33 33 32 32 32 32 33 33 33 33 33 32
32 33 33 32 32 32 31 31 31 31 30 30 30 31 32 32 33 33 33 33 33 33 33 33 33 34 35 35 35 34 33 33 32 32 32 32 32 33 33 33 33 33 32
31 30 32 32 32 31 31 31 31 31 31 30 31 31 32 32 31 31 32 32 32 32 33 34 35 34 34 34 33 33 33 32 32 31 31 31 31 32 32 32 32 32 32
30 30 31 31 30 29 30 30 30 31 31 31 30 31 31 31 31 31 31 31 30 30 31 32 33 33 33 32 32 32 31 31 31 30 31 31 31 31 31 31 32 32 32
29 28 28 28 28 28 29 30 31 30 30 30 30 31 31 31 30 30 30 30 30 30 31 31 31 31 30 30 30 30 30 30 29 30 30 30 30 30 30 30 30 30 30
27 27 28 28 28 28 28 29 30 30 30 30 30 30 30 30 29 30 30 30 30 30 30 30 29 29 29 29 28 28 28 28 28 29 29 29 29 28 28 29 29 29 29
Wind_Direction
267 265 264 264 264 263 263 266 268 271 275 277 277 279 282 285 282 283 284 285 284 284 283 283 285 282 281 280 281 283 284 283 283 284 284 284 281 283 286 285 283 284 286
268 266 266 265 266 265 265 266 268 271 274 277 278 278 281 283 285 284 283 284 284 284 286 283 283 282 282 282 282 283 283 283 282 282 282 283 282 283 285 285 284 283 284
271 270 268 268 268 267 267 267 269 272 273 274 276 276 278 278 280 283 284 285 284 284 286 286 285 282 281 282 284 284 283 283 282 281 280 280 281 282 282 284 284 284 284
273 272 271 271 269 267 268 269 269 270 272 272 274 274 274 275 276 278 282 285 285 284 283 284 283 282 283 283 285 284 283 282 281 281 280 280 279 280 281 283 284 284 285
270 271 271 271 270 268 269 269 269 269 270 271 272 273 275 276 275 276 279 282 284 284 282 282 282 282 283 283 284 283 283 282 281 280 279 280 278 279 280 281 282 283 283
270 271 268 269 270 268 268 267 268 270 270 270 270 272 275 276 276 277 278 280 281 282 280 280 280 281 282 283 283 283 282 281 282 280 278 279 278 278 279 280 280 280 280
271 272 270 267 268 267 267 266 267 268 270 270 271 272 273 275 275 276 277 278 280 281 280 279 279 281 283 282 282 281 281 281 282 282 279 278 278 277 278 279 279 280 280
271 272 270 268 267 267 268 267 267 267 267 268 270 272 272 272 274 275 275 276 279 280 280 280 279 281 282 283 281 280 280 280 281 282 279 277 278 278 277 278 279 280 280
270 269 269 269 266 266 267 267 268 268 267 268 270 270 271 271 272 274 275 276 277 279 280 279 279 280 281 282 282 281 280 280 281 281 280 279 279 279 279 280 280 281 281
270 269 270 272 268 265 265 265 267 267 266 267 268 268 271 273 274 275 276 275 275 277 278 278 278 279 280 282 283 282 280 281 281 281 281 281 280 280 280 280 280 281 282
270 270 270 269 267 266 266 265 265 266 266 266 267 270 271 272 272 273 274 273 274 276 276 277 279 280 280 281 282 282 281 280 280 280 280 281 281 282 282 281 281 280 280
271 269 268 269 267 268 267 268 267 267 267 267 267 269 270 271 271 272 271 272 273 274 275 277 278 279 280 281 282 281 281 281 280 280 281 281 282 281 281 281 280 280 280
270 269 269 268 268 270 269 270 272 271 268 269 268 268 269 270 270 269 270 271 272 273 274 275 278 279 280 282 282 282 281 280 282 282 282 282 282 281 280 280 280 280 279
269 268 268 268 270 271 271 272 272 272 272 272 272 269 269 269 269 270 272 271 271 273 274 275 277 279 280 281 282 281 281 281 281 283 283 283 282 281 280 279 280 280 280
269 268 267 268 269 270 272 273 274 273 273 273 274 272 270 271 269 271 272 271 272 273 274 276 278 279 280 281 281 280 280 281 282 283 284 284 283 281 280 280 280 280 280
270 268 268 269 271 272 273 273 274 274 273 273 273 275 272 272 272 272 271 271 272 273 275 277 277 279 280 280 280 280 280 281 282 283 283 283 283 282 281 281 280 280 280
269 269 269 269 271 272 272 273 274 274 273 272 273 275 274 273 271 270 270 271 273 275 276 277 278 280 281 282 282 281 281 280 280 281 282 282 282 281 281 281 281 280 281
268 268 268 268 268 269 270 271 272 272 273 273 274 275 273 271 270 270 272 271 273 274 275 276 278 279 280 281 281 281 281 280 280 280 281 281 281 281 281 281 280 281 281
268 267 268 268 268 267 267 269 270 271 272 273 273 275 274 272 271 272 272 272 274 275 275 276 277 278 279 281 281 280 280 280 280 280 281 281 280 280 281 281 280 281 281
266 266 267 268 268 267 267 269 271 271 272 272 273 275 274 272 272 273 274 274 275 275 275 276 277 278 279 280 281 280 280 280 280 280 279 279 279 280 281 281 281 282 282
264 264 266 267 267 267 268 270 273 272 273 272 273 275 276 275 274 275 275 274 276 276 275 276 277 278 279 280 280 280 280 280 280 279 279 278 278 279 281 281 281 282 282
264 264 265 264 264 266 268 270 270 270 271 272 274 276 277 277 276 276 276 275 275 276 276 276 278 279 279 280 281 280 280 279 279 278 278 278 278 278 279 280 280 281 282
263 264 266 264 263 264 266 269 269 270 270 272 273 274 276 277 277 277 277 276 276 277 277 278 279 279 280 280 280 280 279 278 277 277 278 279 280 280 280 280 280 280 281
264 265 266 265 264 265 266 268 269 270 272 273 273 275 276 277 277 277 278 278 278 279 280 280 279 278 279 278 278 279 278 277 276 275 276 278 280 281 280 280 280 281 282
266 266 266 266 266 267 267 269 271 271 272 273 273 275 276 276 277 278 280 280 279 279 281 280 279 279 280 280 279 278 277 276 276 275 276 277 279 280 281 282 282 282 282
267 267 267 266 267 268 268 268 269 270 272 273 274 275 276 277 278 279 281 281 280 280 280 280 278 277 278 278 277 277 276 276 275 277 277 278 280 281 282 283 283 283 282
Height
5891 5891 5891 5891 5890 5890 5890 5889 5889 5888 5888 5887 5886 5885 5884 5883 5883 5882 5881 5880 5879 5878 5877 5876 5876 5875 5874 5874 5873 5872 5871 5871 5870 5869 5867 5865 5864 5863 5861 5860 5859 5858 5857
5886 5886 5885 5885 5885 5885 5884 5884 5883 5883 5882 5881 5880 5879 5879 5878 5877 5877 5876 5875 5873 5873 5872 5871 5870 5869 5869 5868 5867 5866 5865 5864 5864 5863 5862 5860 5859 5857 5856 5855 5853 5852 5850
5880 5880 5879 5878 5878 5879 5878 5878 5877 5877 5876 5875 5875 5874 5873 5872 5871 5871 5870 5869 5868 5867 5866 5865 5864 5863 5863 5862 5861 5860 5859 5858 5857 5856 5856 5854 5853 5851 5850 5849 5847 5846 5844
5873 5873 5873 5872 5872 5872 5871 5871 5871 5870 5870 5869 5868 5867 5867 5866 5865 5864 5864 5863 5862 5861 5860 5860 5858 5857 5856 5855 5854 5853 5852 5851 5850 5849 5848 5847 5846 5845 5843 5842 5841 5839 5837
5866 5866 5865 5865 5864 5864 5864 5863 5863 5863 5862 5862 5861 5860 5859 5859 5859 5858 5857 5856 5855 5855 5854 5853 5852 5850 5849 5848 5847 5846 5845 5843 5842 5841 5840 5840 5839 5837 5836 5835 5833 5832 5830
5858 5857 5857 5857 5857 5856 5856 5856 5855 5855 5854 5853 5853 5852 5852 5852 5851 5851 5850 5849 5848 5847 5847 5845 5844 5843 5842 5840 5839 5838 5837 5835 5834 5833 5832 5831 5831 5829 5828 5827 5825 5824 5823
5848 5848 5848 5848 5848 5848 5847 5847 5846 5846 5846 5846 5845 5845 5845 5844 5843 5843 5842 5841 5840 5839 5838 5837 5836 5835 5833 5832 5830 5829 5828 5826 5825 5824 5823 5823 5821 5821 5820 5819 5817 5815 5814
5838 5838 5837 5837 5837 5837 5837 5838 5837 5837 5837 5836 5836 5836 5836 5835 5835 5834 5834 5833 5832 5831 5830 5828 5827 5826 5824 5823 5821 5820 5819 5818 5816 5815 5814 5813 5812 5811 5810 5809 5807 5806 5805
5827 5827 5826 5826 5827 5827 5828 5828 5827 5827 5826 5826 5826 5826 5826 5826 5826 5825 5825 5824 5823 5822 5821 5820 5818 5817 5815 5813 5812 5811 5810 5809 5807 5805 5804 5803 5802 5801 5800 5799 5797 5796 5795
5817 5817 5816 5817 5817 5818 5818 5818 5817 5816 5815 5816 5816 5816 5816 5816 5816 5815 5815 5814 5813 5812 5811 5810 5809 5807 5806 5804 5803 5801 5800 5799 5797 5796 5795 5793 5792 5791 5789 5788 5786 5785 5784
5808 5807 5807 5807 5806 5807 5807 5807 5807 5807 5806 5807 5806 5806 5806 5806 5805 5805 5804 5804 5803 5802 5801 5800 5799 5797 5796 5794 5793 5791 5790 5789 5787 5786 5784 5783 5782 5780 5778 5777 5775 5774 5773
5797 5797 5797 5797 5796 5795 5796 5797 5797 5797 5796 5796 5796 5795 5795 5794 5794 5793 5793 5793 5792 5792 5791 5791 5789 5788 5786 5784 5783 5781 5780 5778 5777 5775 5774 5773 5771 5770 5768 5766 5764 5762 5761
5787 5787 5786 5786 5786 5786 5786 5786 5786 5785 5785 5784 5784 5784 5784 5783 5782 5782 5782 5782 5782 5781 5781 5780 5779 5777 5776 5774 5772 5771 5769 5767 5766 5765 5763 5762 5760 5758 5757 5755 5753 5751 5750
5776 5775 5775 5775 5775 5774 5774 5775 5775 5775 5774 5773 5773 5773 5773 5773 5772 5772 5771 5771 5771 5770 5770 5769 5768 5766 5765 5764 5762 5760 5759 5757 5755 5754 5752 5750 5748 5747 5745 5744 5743 5741 5740
5764 5764 5764 5764 5764 5764 5764 5764 5763 5763 5763 5763 5762 5761 5762 5762 5761 5761 5760 5760 5759 5759 5758 5757 5757 5756 5754 5753 5751 5750 5748 5746 5745 5743 5741 5739 5737 5736 5734 5733 5732 5731 5730
5753 5753 5753 5753 5753 5753 5753 5753 5753 5752 5752 5752 5752 5751 5751 5750 5750 5749 5749 5749 5748 5747 5747 5746 5746 5745 5743 5742 5740 5738 5737 5735 5734 5732 5731 5729 5727 5726 5724 5723 5722 5720 5719
5742 5742 5742 5742 5742 5742 5743 5743 5743 5742 5741 5741 5741 5740 5740 5740 5739 5738 5738 5738 5738 5737 5736 5735 5735 5734 5732 5731 5729 5728 5726 5725 5723 5722 5720 5719 5717 5716 5714 5713 5711 5710 5709
5731 5731 5732 5732 5732 5732 5733 5733 5733 5732 5732 5731 5731 5730 5729 5729 5729 5728 5728 5727 5727 5726 5725 5725 5724 5723 5721 5720 5718 5717 5716 5714 5713 5711 5710 5709 5707 5706 5704 5703 5701 5700 5699
5720 5721 5721 5721 5722 5722 5722 5723 5722 5722 5722 5722 5721 5720 5718 5718 5718 5718 5717 5717 5716 5715 5714 5714 5713 5712 5711 5709 5708 5706 5705 5704 5702 5701 5699 5698 5697 5695 5694 5693 5691 5690 5688
5710 5710 5710 5711 5711 5712 5712 5712 5712 5712 5712 5712 5711 5710 5709 5709 5708 5708 5707 5706 5705 5704 5703 5703 5702 5701 5700 5699 5697 5696 5694 5693 5691 5690 5689 5687 5686 5685 5684 5682 5681 5679 5678
5699 5700 5700 5700 5701 5702 5702 5703 5702 5702 5702 5702 5701 5700 5699 5698 5697 5697 5696 5695 5694 5693 5692 5692 5691 5690 5689 5687 5686 5684 5683 5682 5680 5679 5678 5677 5676 5674 5673 5672 5670 5669 5667
5690 5690 5690 5691 5691 5691 5692 5692 5692 5692 5692 5692 5691 5690 5689 5688 5687 5686 5685 5685 5684 5683 5681 5680 5680 5679 5677 5676 5674 5673 5671 5670 5669 5668 5667 5666 5665 5664 5663 5661 5660 5658 5657
5680 5680 5680 5680 5681 5681 5681 5682 5682 5682 5682 5681 5681 5680 5679 5678 5677 5675 5674 5673 5672 5671 5670 5669 5668 5667 5666 5664 5663 5661 5660 5659 5659 5658 5657 5656 5655 5653 5652 5651 5650 5648 5647
5669 5670 5671 5671 5671 5671 5671 5671 5672 5671 5671 5671 5671 5670 5669 5668 5667 5665 5664 5662 5661 5660 5659 5658 5656 5655 5653 5652 5651 5650 5650 5649 5648 5648 5647 5646 5645 5644 5642 5641 5639 5638 5637
5660 5660 5660 5660 5660 5661 5661 5661 5662 5661 5661 5661 5661 5660 5659 5658 5656 5655 5654 5652 5651 5649 5648 5646 5645 5643 5642 5641 5640 5640 5639 5639 5638 5637 5637 5636 5635 5634 5632 5631 5629 5628 5626
5650 5650 5651 5651 5651 5651 5651 5651 5652 5652 5651 5651 5651 5650 5649 5648 5647 5645 5644 5642 5641 5639 5637 5636 5634 5633 5632 5631 5631 5630 5630 5629 5628 5628 5627 5626 5625 5624 5622 5621 5619 5618 5617